NATIONAL KEY DEER NWR FL US current weather conditions

sailwx.info

Wind from 075 at 4 knots gusting 8

Air temperature 28.9° C
Dewpoint 24.0° C

Last reported at 2015-Jul-06 06:38 UTC.
Time now 2015-Jul-06 07:09 UTC

Location: N 24°43' W 081°23'.
View on Google Maps.

See reports from other nearby stations

  
Tides and Currents Weather Stations Pressure Air Temp Water Temp Dewpoint Dewpoint Depression Visibility Wind Speed Wind Dir Waves Ship Positions
date/time (UTC)wind fromknots sea level pressurealtimeterstation pressurevisibilityair tempwater tempwave heightnotes
2015-Jul-06 06:38 075 4 gusting 8 28.9
2015-Jul-06 05:38 082 4 gusting 8 28.9
2015-Jul-06 04:38 077 5 gusting 8 28.9
2015-Jul-06 03:38 085 5 gusting 10 28.9
2015-Jul-06 02:38 112 3 gusting 7 28.9
2015-Jul-06 01:38 140 4 gusting 11 28.9
2015-Jul-06 00:38 134 5 gusting 10 29.4
2015-Jul-05 23:38 124 5 gusting 12 30.0
2015-Jul-05 22:38 105 6 gusting 13 31.1
2015-Jul-05 21:38 102 6 gusting 13 31.7
2015-Jul-05 20:38 105 6 gusting 12 32.8
2015-Jul-05 19:38 107 6 gusting 12 33.3
2015-Jul-05 18:38 100 6 gusting 12 33.3
2015-Jul-05 17:38 113 5 gusting 12 33.3
2015-Jul-05 16:38 106 6 gusting 12 33.3
2015-Jul-05 15:38 107 5 gusting 10 33.3
2015-Jul-05 14:38 105 5 gusting 10 32.2
2015-Jul-05 13:38 116 5 gusting 12 31.1
2015-Jul-05 12:38 146 5 gusting 8 30.6
2015-Jul-05 11:38 140 3 gusting 10 28.9
2015-Jul-05 10:38 146 5 gusting 9 28.3
2015-Jul-05 09:38 137 4 gusting 8 28.3
2015-Jul-05 08:38 135 3 gusting 8 28.3
2015-Jul-05 07:38 127 4 gusting 8 28.3
2015-Jul-05 06:38 136 4 gusting 8 28.3
2015-Jul-05 05:38 133 4 gusting 10 28.9
2015-Jul-05 04:38 125 4 gusting 9 28.9
2015-Jul-05 03:38 109 4 gusting 9 28.9
2015-Jul-05 02:38 108 3 gusting 8 28.9
2015-Jul-05 01:38 120 4 gusting 8 29.4
2015-Jul-05 00:38 119 4 gusting 10 29.4
2015-Jul-04 23:38 120 6 gusting 11 30.0
2015-Jul-04 22:38 105 5 gusting 12 32.2
2015-Jul-04 21:38 108 5 gusting 12 32.2
2015-Jul-04 20:38 109 6 gusting 13 33.3
2015-Jul-04 19:38 108 6 gusting 13 33.9
2015-Jul-04 18:38 112 6 gusting 11 33.9
2015-Jul-04 17:38 108 5 gusting 13 33.9
2015-Jul-04 16:38 098 5 gusting 10 33.9
2015-Jul-04 15:38 109 4 gusting 10 32.8
2015-Jul-04 14:38 124 5 gusting 10 32.2
2015-Jul-04 13:38 115 3 gusting 10 31.7
2015-Jul-04 12:38 140 5 gusting 8 30.6
2015-Jul-04 11:38 142 2 gusting 6 28.9
2015-Jul-04 10:38 137 2 gusting 6 27.8
2015-Jul-04 09:38 140 4 gusting 9 28.3
2015-Jul-04 08:38 125 4 gusting 8 28.3
2015-Jul-04 07:38 103 4 gusting 10 28.3